Flag for U.S.A. Weather past 2 weeks in Coeur d'Alene, Idaho, U.S.A.

Now
64 °F

Clear.


Feels Like: 64 °F
Forecast: 55 / 73 °F
Wind: 8 mph from Southwest

Location: Coeur d'Alene Weather Reporting System

Current Time: Aug 29, 2014 at 11:52:00 PM

Latest Report: Aug 29, 2014 at 11:15 PM


Visibility: 10 mi

Pressure: 29.82 "Hg

Humidity: 40%

Dew point: 39 °F

Location of Coeur d'AleneLocation

Historic Weather in Coeur d'Alene — Graph

°F

Coeur d'Alene temperature yesterday

Maximum temperature yesterday: 82 °F (at 2:55 PM)
Minimum temperature yesterday: 61 °F (at 2:35 AM)
Average temperature yesterday: 72 °F

Past Weeks' High & Low Weather Summary

 TemperatureHumidityPressure
High90 °F (Aug 18, 3:15 PM)94% (Aug 15, 1:35 AM)30.14 "Hg (Aug 15, 1:35 AM)
Low46 °F (Aug 26, 6:15 AM)12% (Aug 26, 3:35 PM)29.66 "Hg (Aug 19, 4:55 PM)
Average67 °F58%29.97 "Hg
* Reported Aug 14 10:15 PM — Aug 29 10:55 PM, Coeur d'Alene, Weather by CustomWeather, © 2014

Note: Actual official high and low records may vary slightly from our data, if they occured in-between our weather recording intervals... More about our weather records

Advertising

Coeur d'Alene weather history for previous 24 hours

 ConditionsComfort  
Time TempWeatherWind HumidityBarometerVisibility
10:55 PM
Aug 29
66 °FClear.7 mph40%29.82 "Hg10 mi
10:35 PM66 °FClear.8 mph40%29.82 "Hg10 mi
10:15 PM66 °FClear.8 mph43%29.82 "Hg10 mi
9:55 PM68 °FClear.7 mph40%29.82 "Hg10 mi
9:35 PM70 °FClear.9 mph40%29.82 "Hg10 mi
9:15 PM68 °FClear.7 mph43%29.82 "Hg10 mi
8:55 PM66 °FClear.7 mph46%29.82 "Hg10 mi
8:35 PM68 °FClear.7 mph40%29.81 "Hg10 mi
8:15 PM68 °FSunny.7 mph38%29.81 "Hg10 mi
7:55 PM72 °FSunny.7 mph33%29.81 "Hg10 mi
7:35 PM73 °FPassing clouds.8 mph33%29.81 "Hg10 mi
7:15 PM73 °FSunny.10 mph33%29.81 "Hg10 mi
6:55 PM75 °FSunny.9 mph29%29.80 "Hg10 mi
6:35 PM75 °FSunny.10 mph27%29.80 "Hg10 mi
6:15 PM77 °FSunny.10 mph26%29.80 "Hg10 mi
5:55 PM79 °FPassing clouds.14 mph24%29.81 "Hg10 mi
5:35 PM79 °FSunny.16 mph24%29.81 "Hg10 mi
5:15 PM79 °FSunny.15 mph24%29.81 "Hg10 mi
4:55 PM81 °FSunny.14 mph23%29.81 "Hg10 mi
4:35 PM79 °FSunny.10 mph23%29.81 "Hg10 mi
4:15 PM81 °FSunny.17 mph23%29.81 "Hg10 mi
3:55 PM81 °FSunny.17 mph23%29.81 "Hg10 mi
3:35 PM81 °FSunny.13 mph26%29.82 "Hg10 mi
3:15 PM82 °FSunny.15 mph26%29.82 "Hg10 mi
2:55 PM81 °FSunny.13 mph26%29.83 "Hg10 mi
2:35 PM82 °FSunny.14 mph26%29.84 "Hg10 mi
2:15 PM81 °FSunny.17 mph28%29.84 "Hg10 mi
11:55 AM75 °FSunny.10 mph47%29.91 "Hg10 mi
11:35 AM73 °FSunny.5 mph41%29.91 "Hg10 mi
10:55 AM73 °FSunny.9 mph38%29.93 "Hg10 mi
10:35 AM72 °FSunny.8 mph44%29.94 "Hg10 mi
10:15 AM72 °FSunny.9 mph41%29.94 "Hg10 mi
9:55 AM70 °FSunny.7 mph43%29.95 "Hg10 mi
9:35 AM70 °FSunny.8 mph43%29.95 "Hg10 mi
9:15 AM68 °FSunny.8 mph49%29.95 "Hg10 mi
8:55 AM66 °FSunny.6 mph52%29.96 "Hg10 mi
8:35 AM64 °FSunny.6 mph56%29.96 "Hg10 mi
8:15 AM64 °FSunny.8 mph56%29.96 "Hg10 mi
7:55 AM63 °FSunny.7 mph59%29.97 "Hg10 mi
7:35 AM61 °FSunny.8 mph63%29.97 "Hg10 mi
7:15 AM59 °FSunny.3 mph68%29.97 "Hg10 mi
6:55 AM55 °FClear.5 mph72%29.96 "Hg10 mi
6:35 AM55 °FClear.3 mph72%29.96 "Hg10 mi
6:15 AM54 °FClear.7 mph72%29.95 "Hg10 mi
5:55 AM54 °FClear.6 mph72%29.95 "Hg10 mi
5:35 AM54 °FClear.No wind72%29.95 "Hg10 mi
4:55 AM54 °FClear.5 mph72%29.95 "Hg10 mi
4:35 AM54 °FClear.3 mph72%29.95 "Hg10 mi
4:15 AM52 °FClear.6 mph72%29.96 "Hg10 mi
3:55 AM54 °FClear.5 mph67%29.95 "Hg10 mi
3:35 AM52 °FClear.No wind72%29.95 "Hg10 mi
3:15 AM54 °FClear.6 mph72%29.95 "Hg10 mi
2:55 AM55 °FClear.3 mph63%29.95 "Hg10 mi
2:35 AM61 °FClear.5 mph59%29.96 "Hg10 mi
2:15 AM63 °FClear.6 mph56%29.96 "Hg10 mi
1:55 AM61 °FClear.No wind55%29.96 "Hg10 mi
1:35 AM63 °FClear.5 mph52%29.96 "Hg10 mi
1:15 AM64 °FClear.9 mph49%29.96 "Hg10 mi
12:55 AM64 °FClear.9 mph49%29.96 "Hg10 mi
12:35 AM64 °FClear.9 mph49%29.96 "Hg10 mi
12:15 AM64 °FClear.8 mph49%29.95 "Hg10 mi
11:55 PM
Aug 28
64 °FClear.9 mph46%29.95 "Hg10 mi
11:35 PM66 °FClear.7 mph43%29.95 "Hg10 mi
11:15 PM66 °FClear.7 mph43%29.95 "Hg10 mi
Weather by CustomWeather, © 2014

See weather overviewHow to use our weather pages